Regional Weather Roundup
Issued by NWS

Home | Current Version | Previous Version | Graphics & Text | Print | Product List | Glossary On
Versions: 1 2 3 4 5 6 7 8 9 10 11 12 13 14 15 16 17 18 19 20 21 22 23 24 25 26 27 28 29 30 31 32 33 34 35 36 37 38 39 40 41 42 43 44 45 46 47 48 49 50
000
ASUS44 KMEG 011410
RWRTN
TENNESSEE HOURLY STATE WEATHER ROUNDUP
NATIONAL WEATHER SERVICE MEMPHIS TN
900 AM CDT WED APR 01 2015

TNZ002-004-019-021-049-052-054-088>092-011500-
WEST TENNESSEE

CITY           SKY/WX    TMP DP  RH WIND       PRES   REMARKS
MEMPHIS INTL   CLOUDY    63  57  82 E8        30.03R
NWS MEMPHIS      N/A     62 N/A N/A MISG        N/A
JACKSON        SUNNY     61  43  51 VRB5      30.05S
DYERSBURG      SUNNY     61  36  39 E10       30.06R
UNION CITY     SUNNY     59  45  58 SE6       30.05R
PARIS          SUNNY     57  37  47 SE7       30.07R
LEXINGTON      SUNNY     61  37  41 VRB6      30.06S
SAVANNAH       SUNNY     59  55  88 E6        30.05F
$$

TNZ008-025-027-028-033-062-065-066-011500-
NORTH MIDDLE TENNESSEE

CITY           SKY/WX    TMP DP  RH WIND       PRES   REMARKS
NASHVILLE      PTSUNNY   60  34  37 E7        30.10S
CLARKSVILLE    SUNNY     56  39  53 SE5       30.10R
SMYRNA         MOSUNNY   59  37  43 VRB3      30.11S
COOKEVILLE     SUNNY     57  37  47 CALM      30.10
CROSSVILLE     SUNNY     54  31  41 E8        30.11S
$$

TNZ061-075-076-078-094-096-097-011500-
SOUTH MIDDLE TENNESSEE

CITY           SKY/WX    TMP DP  RH WIND       PRES   REMARKS
FAYETTEVILLE   SUNNY     57  39  51 NE7       30.08R
TULLAHOMA      SUNNY     57  34  41 E8        30.09S
WINCHESTER     SUNNY     59  39  47 N3        30.08S
MCMINNVILLE    SUNNY     57  37  47 E8        30.10R
COLUMBIA       SUNNY     59  45  58 E7        30.07R
SHELBYVILLE    SUNNY     61  41  48 E6        30.10R
$$

TNZ017-018-042-046-047-011500-
NORTHEAST TENNESSEE

CITY           SKY/WX    TMP DP  RH WIND       PRES   REMARKS
TRI CITIES     SUNNY     53  33  46 CALM      30.13R
ELIZABETHTON   SUNNY     52  34  50 CALM      30.12R
$$

TNZ012-013-036-069-073-074-011500-
CENTRAL EAST TENNESSEE

CITY           SKY/WX    TMP DP  RH WIND       PRES   REMARKS
KNOXVILLE      MOSUNNY   57  36  45 NE10      30.10R
OAK RIDGE      SUNNY     60  35  39 NE7       30.12S
GATLINBURG     SUNNY     54  37  54 CALM      30.11R
MORRISTOWN     SUNNY     54  37  54 NE7       30.14R
$$

TNZ083-085-099-011500-
SOUTHEAST TENNESSEE

CITY           SKY/WX    TMP DP  RH WIND       PRES   REMARKS
CHATTANOOGA    MOSUNNY   62  36  37 N10       30.09S
$$

SKY/WX REPORTED AS FAIR MEANS FEW OR NO CLOUDS BELOW
12 THOUSAND FEET.




USA.gov is the U.S. government's official web portal to all federal, state and local government web resources and services.